Total_Precipitation_Accumulation
1.60 1.80 1.40 0.86 0.65 0.56 0.51 0.40 0.33 0.29 0.33 0.42 0.38 0.33 0.39 0.42 0.48 0.47 0.47 0.50 0.54 0.68 0.78 0.96 1.24 1.57 1.82 1.94 2.20 2.36 2.53 2.70 2.77 2.71 2.39 2.03 1.78 1.67 1.58 1.41 1.27 1.18 1.13 1.11
1.53 1.35 0.79 0.56 0.61 0.65 0.64 0.57 0.41 0.30 0.27 0.38 0.40 0.36 0.36 0.38 0.45 0.45 0.45 0.45 0.48 0.53 0.60 0.77 1.08 1.28 1.49 1.70 1.86 2.15 2.19 2.40 2.45 2.40 2.39 2.20 2.08 1.96 1.83 1.69 1.48 1.34 1.28 1.19
1.15 0.82 0.64 0.70 0.80 0.79 0.67 0.56 0.47 0.40 0.35 0.42 0.48 0.46 0.36 0.35 0.36 0.35 0.36 0.35 0.41 0.46 0.50 0.63 0.86 1.07 1.19 1.40 1.69 1.83 1.92 2.10 2.30 2.37 2.51 2.59 2.52 2.21 1.93 1.75 1.66 1.53 1.45 1.36
1.00 0.70 0.74 0.80 0.76 0.73 0.68 0.41 0.45 0.50 0.61 0.59 0.47 0.59 0.41 0.31 0.30 0.31 0.33 0.30 0.33 0.41 0.44 0.52 0.60 0.78 0.92 1.05 1.40 1.73 1.90 2.01 2.18 2.44 2.45 2.37 2.24 2.02 1.76 1.74 1.78 1.75 1.64 1.53
0.98 0.73 0.81 0.83 0.58 0.57 0.61 0.42 0.48 0.57 0.68 0.65 0.42 0.46 0.39 0.25 0.28 0.30 0.32 0.31 0.37 0.48 0.52 0.50 0.52 0.63 0.77 0.88 1.13 1.42 1.70 1.96 2.15 2.25 2.29 2.33 2.17 1.98 1.92 1.85 1.81 1.72 1.62 1.56
0.71 0.71 0.87 0.75 0.52 0.56 0.67 0.68 0.73 0.78 0.98 0.93 0.39 0.38 0.37 0.27 0.30 0.31 0.31 0.32 0.38 0.46 0.53 0.50 0.49 0.58 0.70 0.76 0.91 1.17 1.43 1.59 1.82 2.03 2.11 2.14 2.11 2.10 2.04 1.86 1.77 1.77 1.74 1.66
0.97 0.84 0.82 0.82 0.84 0.86 0.98 1.32 1.71 1.62 1.35 0.72 0.26 0.29 0.29 0.25 0.32 0.35 0.35 0.37 0.39 0.40 0.42 0.43 0.46 0.53 0.64 0.72 0.81 0.92 1.09 1.22 1.37 1.56 1.71 1.79 1.89 1.99 1.91 1.80 1.66 1.64 1.62 1.57
1.06 1.06 0.81 0.92 1.00 1.03 0.96 1.14 1.36 1.11 0.68 0.36 0.22 0.24 0.23 0.24 0.34 0.38 0.37 0.36 0.35 0.40 0.42 0.40 0.39 0.44 0.53 0.59 0.68 0.76 0.85 0.95 1.11 1.23 1.35 1.49 1.63 1.81 1.80 1.77 1.61 1.49 1.44 1.44
0.81 0.86 0.64 0.76 0.77 0.76 0.87 0.85 0.75 0.93 0.61 0.35 0.23 0.16 0.15 0.17 0.23 0.31 0.32 0.30 0.30 0.38 0.41 0.38 0.38 0.39 0.46 0.50 0.55 0.65 0.77 0.84 0.92 1.06 1.19 1.30 1.39 1.48 1.55 1.62 1.63 1.49 1.41 1.40
0.74 0.89 0.70 0.78 0.95 0.83 0.71 0.67 0.85 1.19 0.94 0.51 0.21 0.12 0.18 0.19 0.20 0.28 0.31 0.33 0.36 0.40 0.40 0.37 0.38 0.42 0.46 0.47 0.48 0.56 0.72 0.76 0.79 0.87 0.98 1.08 1.17 1.31 1.39 1.42 1.42 1.38 1.34 1.35
0.73 1.00 0.86 0.94 1.05 0.75 0.65 0.81 0.94 0.95 0.72 0.62 0.39 0.25 0.23 0.24 0.22 0.25 0.30 0.33 0.37 0.40 0.41 0.40 0.44 0.51 0.53 0.48 0.50 0.56 0.63 0.74 0.80 0.81 0.86 0.91 0.92 1.00 1.15 1.25 1.27 1.28 1.26 1.25
0.71 1.02 0.89 0.76 0.61 0.51 0.51 0.51 0.70 1.02 0.75 0.53 0.47 0.35 0.24 0.24 0.22 0.23 0.28 0.31 0.33 0.35 0.37 0.42 0.49 0.52 0.53 0.54 0.57 0.60 0.63 0.69 0.79 0.81 0.82 0.86 0.88 0.88 0.97 1.06 1.16 1.22 1.29 1.22
0.71 1.04 1.02 0.88 0.75 0.68 0.63 0.45 0.51 0.82 1.04 0.79 0.63 0.40 0.25 0.22 0.23 0.23 0.26 0.30 0.33 0.36 0.35 0.36 0.43 0.49 0.50 0.54 0.63 0.67 0.70 0.71 0.71 0.74 0.75 0.75 0.76 0.77 0.83 0.89 0.98 1.05 1.14 1.14
0.86 0.98 0.89 0.80 0.68 0.65 0.59 0.44 0.53 1.01 1.20 0.71 0.47 0.37 0.26 0.24 0.26 0.24 0.27 0.32 0.35 0.35 0.33 0.35 0.40 0.44 0.47 0.52 0.57 0.57 0.65 0.67 0.67 0.66 0.71 0.72 0.69 0.69 0.75 0.84 0.88 0.92 0.97 1.04
0.86 1.01 0.72 0.52 0.41 0.45 0.46 0.35 0.44 0.73 0.73 0.75 0.46 0.34 0.33 0.31 0.28 0.25 0.27 0.27 0.27 0.28 0.30 0.34 0.37 0.40 0.43 0.41 0.41 0.44 0.50 0.57 0.59 0.60 0.67 0.71 0.72 0.76 0.86 0.90 0.86 0.86 0.88 0.94
0.59 0.82 0.71 0.54 0.33 0.33 0.36 0.29 0.33 0.42 0.45 0.51 0.40 0.36 0.26 0.25 0.23 0.23 0.24 0.23 0.21 0.22 0.24 0.25 0.30 0.36 0.39 0.37 0.37 0.37 0.40 0.45 0.47 0.48 0.53 0.60 0.67 0.76 0.86 0.93 0.91 0.87 0.85 0.90
0.46 0.62 0.75 0.50 0.25 0.35 0.40 0.30 0.35 0.38 0.37 0.43 0.46 0.38 0.24 0.23 0.21 0.22 0.23 0.20 0.17 0.18 0.18 0.19 0.22 0.28 0.29 0.29 0.31 0.34 0.36 0.39 0.42 0.41 0.43 0.49 0.62 0.72 0.78 0.84 0.88 0.89 0.90 0.99
0.33 0.52 0.77 0.57 0.38 0.44 0.26 0.19 0.24 0.29 0.32 0.34 0.33 0.25 0.19 0.20 0.21 0.21 0.21 0.18 0.16 0.15 0.14 0.15 0.18 0.21 0.21 0.22 0.24 0.26 0.27 0.33 0.42 0.45 0.47 0.51 0.57 0.67 0.78 0.82 0.88 0.93 0.96 1.04
0.17 0.46 0.82 0.68 0.49 0.26 0.14 0.11 0.16 0.26 0.31 0.21 0.19 0.16 0.12 0.13 0.14 0.15 0.17 0.16 0.15 0.15 0.14 0.14 0.16 0.17 0.16 0.18 0.21 0.21 0.22 0.28 0.37 0.43 0.48 0.48 0.53 0.63 0.74 0.84 0.91 0.96 1.00 1.05
0.18 0.38 0.83 0.74 0.59 0.30 0.15 0.07 0.08 0.22 0.40 0.17 0.12 0.12 0.11 0.13 0.19 0.17 0.15 0.15 0.13 0.13 0.17 0.17 0.16 0.16 0.16 0.18 0.20 0.23 0.25 0.29 0.37 0.41 0.45 0.47 0.50 0.58 0.68 0.78 0.87 0.93 0.94 0.94
0.30 0.51 0.68 0.59 0.55 0.23 0.10 0.05 0.08 0.33 0.48 0.19 0.13 0.12 0.13 0.16 0.17 0.14 0.11 0.10 0.11 0.13 0.17 0.22 0.24 0.25 0.26 0.28 0.29 0.30 0.31 0.35 0.38 0.42 0.47 0.49 0.52 0.57 0.65 0.71 0.74 0.76 0.75 0.73
0.21 0.30 0.32 0.34 0.49 0.28 0.12 0.13 0.22 0.30 0.20 0.15 0.14 0.15 0.18 0.20 0.17 0.14 0.12 0.10 0.11 0.14 0.18 0.23 0.27 0.29 0.32 0.33 0.35 0.36 0.39 0.40 0.40 0.43 0.47 0.52 0.54 0.53 0.54 0.56 0.60 0.58 0.57 0.56
0.17 0.23 0.25 0.25 0.26 0.18 0.15 0.19 0.22 0.22 0.18 0.14 0.13 0.13 0.16 0.22 0.22 0.19 0.17 0.14 0.12 0.13 0.16 0.19 0.23 0.24 0.25 0.30 0.36 0.40 0.41 0.40 0.39 0.42 0.43 0.44 0.45 0.45 0.46 0.45 0.46 0.48 0.50 0.50
0.17 0.16 0.21 0.22 0.19 0.16 0.15 0.16 0.15 0.15 0.14 0.13 0.13 0.14 0.15 0.17 0.20 0.20 0.19 0.17 0.16 0.15 0.13 0.14 0.16 0.18 0.19 0.21 0.25 0.30 0.32 0.32 0.30 0.33 0.32 0.32 0.33 0.35 0.36 0.37 0.39 0.42 0.44 0.44
0.17 0.16 0.19 0.20 0.15 0.12 0.11 0.10 0.09 0.09 0.09 0.09 0.11 0.12 0.13 0.13 0.16 0.19 0.18 0.16 0.16 0.15 0.14 0.12 0.12 0.12 0.13 0.14 0.16 0.20 0.22 0.23 0.23 0.24 0.24 0.24 0.25 0.31 0.35 0.36 0.37 0.40 0.42 0.47
0.11 0.14 0.22 0.23 0.14 0.14 0.12 0.08 0.07 0.07 0.07 0.07 0.10 0.12 0.11 0.12 0.15 0.16 0.15 0.13 0.13 0.15 0.15 0.12 0.11 0.12 0.12 0.13 0.13 0.14 0.18 0.21 0.23 0.22 0.22 0.23 0.21 0.26 0.33 0.37 0.38 0.42 0.45 0.50